World > North America > United States > Mississippi

Hourly Shepherd, MS Regional Weather

Feedback E-mail the Weather

Quick WX

Shepherd, MS Weather Maps

°F °C°F °C
Shepherd Weather Map
UTC Time: 7/2/2022, 17:26
Your Time:

Shepherd, MS Regional Weather

Expires:202207021800;;560560
ASUS44 KJAN 021710
RWRMS 

MISSISSIPPI HOURLY WEATHER ROUNDUP
NATIONAL WEATHER SERVICE JACKSON MS
1200 PM CDT SAT JUL 02 2022

NOTE: "FAIR: INDICATES FEW OR NO CLOUDS BELOW 12,000 FEET WITH NO
SIGNIFICANT WEATHER AND/OR OBSTRUCTIONS TO VISIBILITY.


MSZ003>006-009-014>017-022>024-029>033-037>039-021800-
NORTHEAST MISSISSIPPI
  
CITY           SKY/WX    TMP DP  RH WIND       PRES   REMARKS
ABERDEEN       FAIR      88  75  66 SW5       30.07S HX  97           
COLUMBUS AFB   PTSUNNY   86  71  60 SW6       30.02F HX  90           
CORINTH        PTSUNNY   86  68  54 W5        30.04F                  
GOLDN TRIANGLE PTSUNNY   88  71  57 VRB5      30.06F HX  94           
TUPELO         MOSUNNY   92  68  45 VRB7      30.05S HX  96           
$$


SKY/WX - Weather  TMP - Temperature  DP - Dew Point  RH - Humidity
WIND - Wind Direction/Speed PRES - Barometric Pressure VSB - Visibility
WCI - Wind Chill Index E13G22 Wind - East Wind 13 mph/Gusts of 22 mph

Trending Headlines

Shepherd Radar Loop



Shepherd Quick Facts


National Two Day Weather Forecast


E-mail the Shepherd Weather Forecast

Voice your opinion or tell us about page issues...